Location: Selby
(38.0566°N, 122.2439°W)
Time: 06:49:48
(UTC+00:00)

Okean 2 Rocket - Pass Details

Date: 20 August 2024
Orbit: 613 x 638 km, 82.5° (Epoch: 19 September)

Event Time Altitude Azimuth Distance (km) Brightness Sun altitude
Rises 11:31:21 0° 145° (SE) 2,919 6.5 -21.5°
Reaches altitude 10° 11:34:19 10° 124° (SE) 2,012 5.9 -21.1°
Maximum altitude 11:37:03 16° 86° (E) 1,643 6.0 -20.6°
Drops below altitude 10° 11:39:46 10° 48° (NE) 2,013 6.9 -20.2°
Sets 11:42:44 0° 28° (NNE) 2,920 7.6 -19.7°
